owner,sensor,date,latitude,longitude,vertical_datum,sea_water_speed,direction_of_sea_water_velocity,upward_sea_water_velocity,qcFlag
BP,ioos:station:wmo:42369:4,2021-11-01T00:40:00Z,27.2159,-90.2844,1343.0,11.4,5.6,-9999.0,'111111111,111111111,999999991'
BP,ioos:station:wmo:42369:4,2021-11-01T01:00:00Z,27.2159,-90.2844,1343.0,11.2,2.0,-9999.0,'111111111,111111111,999999991'
BP,ioos:station:wmo:42369:4,2021-11-01T01:20:00Z,27.2159,-90.2846,1343.0,12.0,1.9,-9999.0,'111111111,111111111,999999991'
BP,ioos:station:wmo:42369:4,2021-11-01T02:00:00Z,27.2159,-90.2834,1343.0,11.8,15.2,-9999.0,'111111111,111111111,999999991'
BP,ioos:station:wmo:42369:4,2021-11-01T02:20:00Z,27.2159,-90.2834,1343.0,10.5,11.5,-9999.0,'111111111,111111111,999999991'
BP,ioos:station:wmo:42369:4,2021-11-01T02:40:00Z,27.2159,-90.2834,1343.0,11.1,4.1,-9999.0,'111111111,111111111,999999991'
BP,ioos:station:wmo:42369:4,2021-11-01T03:00:00Z,27.2159,-90.2834,1343.0,8.9,14.3,-9999.0,'111111111,111111111,999999991'
BP,ioos:station:wmo:42369:4,2021-11-01T03:20:00Z,27.2159,-90.2834,1343.0,10.5,6.0,-9999.0,'111111111,111111111,999999991'
BP,ioos:station:wmo:42369:4,2021-11-01T03:40:00Z,27.2159,-90.2835,1343.0,9.8,16.0,-9999.0,'111111111,111111111,999999991'
BP,ioos:station:wmo:42369:4,2021-11-01T04:00:00Z,27.2159,-90.2835,1343.0,8.9,18.4,-9999.0,'111111111,111111111,999999991'
BP,ioos:station:wmo:42369:4,2021-11-01T04:20:00Z,27.2159,-90.2835,1343.0,9.3,8.0,-9999.0,'111111111,111111111,999999991'
BP,ioos:station:wmo:42369:4,2021-11-01T04:40:00Z,27.2159,-90.2836,1343.0,6.9,24.0,-9999.0,'111111111,111111111,999999991'
BP,ioos:station:wmo:42369:4,2021-11-01T05:00:00Z,27.2159,-90.2836,1343.0,6.6,25.0,-9999.0,'111111111,111111111,999999991'
BP,ioos:station:wmo:42369:4,2021-11-01T05:20:00Z,27.2159,-90.2836,1343.0,7.1,25.8,-9999.0,'111111111,111111111,999999991'
BP,ioos:station:wmo:42369:4,2021-11-01T05:40:00Z,27.2159,-90.2837,1343.0,4.4,33.0,-9999.0,'111111111,111111111,999999991'
BP,ioos:station:wmo:42369:4,2021-11-01T06:00:00Z,27.2159,-90.2837,1343.0,3.8,23.2,-9999.0,'111111111,111111111,999999991'
BP,ioos:station:wmo:42369:4,2021-11-01T06:20:00Z,27.2159,-90.2837,1343.0,2.9,26.6,-9999.0,'111331111,111111111,999999991'
BP,ioos:station:wmo:42369:4,2021-11-01T06:40:00Z,27.2159,-90.2837,1343.0,2.8,4.1,-9999.0,'111331111,111111111,999999991'
BP,ioos:station:wmo:42369:4,2021-11-01T07:00:00Z,27.2158,-90.2839,1343.0,2.5,43.4,-9999.0,'111331111,111111111,999999991'
BP,ioos:station:wmo:42369:4,2021-11-01T07:20:00Z,27.2158,-90.2839,1343.0,3.9,55.5,-9999.0,'111111111,111111111,999999991'
BP,ioos:station:wmo:42369:4,2021-11-01T07:40:00Z,27.2158,-90.2840,1343.0,2.6,59.4,-9999.0,'111331111,111111111,999999991'
BP,ioos:station:wmo:42369:4,2021-11-01T08:00:00Z,27.2157,-90.2842,1343.0,2.9,40.8,-9999.0,'111331111,111111111,999999991'
BP,ioos:station:wmo:42369:4,2021-11-01T08:20:00Z,27.2157,-90.2842,1343.0,3.1,31.6,-9999.0,'111111111,111111111,999999991'
BP,ioos:station:wmo:42369:4,2021-11-01T08:40:00Z,27.2157,-90.2843,1343.0,1.7,59.0,-9999.0,'111331111,111111111,999999991'
BP,ioos:station:wmo:42369:4,2021-11-01T09:00:00Z,27.2157,-90.2844,1343.0,0.9,63.4,-9999.0,'111331111,111111111,999999991'
BP,ioos:station:wmo:42369:4,2021-11-01T09:20:00Z,27.2157,-90.2844,1343.0,2.2,201.8,-9999.0,'111331111,111111111,999999991'
BP,ioos:station:wmo:42369:4,2021-11-01T09:40:00Z,27.2157,-90.2846,1343.0,2.5,168.7,-9999.0,'111331111,111111111,999999991'
BP,ioos:station:wmo:42369:4,2021-11-01T10:00:00Z,27.2157,-90.2846,1343.0,4.4,173.5,-9999.0,'111111111,111111111,999999991'
BP,ioos:station:wmo:42369:4,2021-11-01T10:20:00Z,27.2158,-90.2847,1343.0,3.0,166.4,-9999.0,'111331111,111111111,999999991'
BP,ioos:station:wmo:42369:4,2021-11-01T10:40:00Z,27.2158,-90.2847,1343.0,3.8,180.0,-9999.0,'111111111,111111111,999999991'
BP,ioos:station:wmo:42369:4,2021-11-01T11:00:00Z,27.2158,-90.2847,1343.0,5.1,182.2,-9999.0,'111111111,111111111,999999991'
BP,ioos:station:wmo:42369:4,2021-11-01T11:20:00Z,27.2158,-90.2848,1343.0,6.5,185.3,-9999.0,'111111111,111111111,999999991'
BP,ioos:station:wmo:42369:4,2021-11-01T11:40:00Z,27.2158,-90.2848,1343.0,6.7,193.8,-9999.0,'111111111,111111111,999999991'
BP,ioos:station:wmo:42369:4,2021-11-01T20:20:00Z,27.2158,-90.2852,1343.0,8.9,266.8,-9999.0,'111111111,111111111,999999991'
BP,ioos:station:wmo:42369:4,2021-11-01T22:40:00Z,27.2160,-90.2848,1343.0,14.2,295.8,-9999.0,'111111111,111111111,999999991'
BP,ioos:station:wmo:42369:4,2021-11-01T23:00:00Z,27.2160,-90.2844,1343.0,12.8,295.0,-9999.0,'111111111,111111111,999999991'
BP,ioos:station:wmo:42369:4,2021-11-01T23:20:00Z,27.2160,-90.2844,1343.0,14.4,299.9,-9999.0,'111111111,111111111,999999991'
BP,ioos:station:wmo:42369:4,2021-11-01T23:40:00Z,27.2160,-90.2844,1343.0,15.2,309.1,-9999.0,'111111111,111111111,999999991'
BP,ioos:station:wmo:42369:4,2021-11-02T00:00:00Z,27.2160,-90.2843,1343.0,13.7,309.4,-9999.0,'111111111,111111111,999999991'
BP,ioos:station:wmo:42369:4,2021-11-02T00:20:00Z,27.2160,-90.2843,1343.0,12.2,321.3,-9999.0,'111111111,111111111,999999991'
BP,ioos:station:wmo:42369:4,2021-11-02T00:40:00Z,27.2160,-90.2843,1343.0,13.1,344.1,-9999.0,'111111111,111111111,999999991'
BP,ioos:station:wmo:42369:4,2021-11-02T01:00:00Z,27.2160,-90.2843,1343.0,14.2,5.7,-9999.0,'111111111,111111111,999999991'
BP,ioos:station:wmo:42369:4,2021-11-02T01:20:00Z,27.2160,-90.2844,1343.0,15.5,14.2,-9999.0,'111111111,111111111,999999991'
BP,ioos:station:wmo:42369:4,2021-11-02T01:40:00Z,27.2160,-90.2844,1343.0,15.1,16.2,-9999.0,'111111111,111111111,999999991'
BP,ioos:station:wmo:42369:4,2021-11-02T02:00:00Z,27.2160,-90.2844,1343.0,11.8,16.7,-9999.0,'111111111,111111111,999999991'
BP,ioos:station:wmo:42369:4,2021-11-02T02:20:00Z,27.2160,-90.2844,1343.0,12.1,24.9,-9999.0,'111111111,111111111,999999991'
BP,ioos:station:wmo:42369:4,2021-11-02T02:40:00Z,27.2160,-90.2843,1343.0,8.1,39.0,-9999.0,'111111111,111111111,999999991'
BP,ioos:station:wmo:42369:4,2021-11-02T03:00:00Z,27.2160,-90.2843,1343.0,10.6,33.1,-9999.0,'111111111,111111111,999999991'
BP,ioos:station:wmo:42369:4,2021-11-02T03:20:00Z,27.2160,-90.2843,1343.0,9.2,41.5,-9999.0,'111111111,111111111,999999991'
BP,ioos:station:wmo:42369:4,2021-11-02T03:40:00Z,27.2160,-90.2843,1343.0,8.4,52.7,-9999.0,'111111111,111111111,999999991'
BP,ioos:station:wmo:42369:4,2021-11-02T04:00:00Z,27.2160,-90.2842,1343.0,6.1,37.1,-9999.0,'111111111,111111111,999999991'
BP,ioos:station:wmo:42369:4,2021-11-02T04:20:00Z,27.2160,-90.2842,1343.0,6.2,32.4,-9999.0,'111111111,111111111,999999991'
BP,ioos:station:wmo:42369:4,2021-11-02T04:40:00Z,27.2160,-90.2842,1343.0,7.1,48.4,-9999.0,'111111111,111111111,999999991'
BP,ioos:station:wmo:42369:4,2021-11-02T05:00:00Z,27.2160,-90.2843,1343.0,6.7,83.2,-9999.0,'111111111,111111111,999999991'
BP,ioos:station:wmo:42369:4,2021-11-02T05:20:00Z,27.2160,-90.2843,1343.0,5.7,70.6,-9999.0,'111111111,111111111,999999991'
BP,ioos:station:wmo:42369:4,2021-11-02T05:40:00Z,27.2159,-90.2843,1343.0,5.8,78.1,-9999.0,'111111111,111111111,999999991'
BP,ioos:station:wmo:42369:4,2021-11-02T06:00:00Z,27.2159,-90.2844,1343.0,6.6,76.8,-9999.0,'111111111,111111111,999999991'
BP,ioos:station:wmo:42369:4,2021-11-02T06:20:00Z,27.2159,-90.2844,1343.0,5.0,90.0,-9999.0,'111111111,111111111,999999991'
BP,ioos:station:wmo:42369:4,2021-11-02T06:40:00Z,27.2159,-90.2845,1343.0,4.8,82.9,-9999.0,'111111111,111111111,999999991'
BP,ioos:station:wmo:42369:4,2021-11-02T07:00:00Z,27.2159,-90.2847,1343.0,4.3,83.4,-9999.0,'111111111,111111111,999999991'
BP,ioos:station:wmo:42369:4,2021-11-02T07:20:00Z,27.2159,-90.2847,1343.0,5.0,115.0,-9999.0,'111111111,111111111,999999991'
BP,ioos:station:wmo:42369:4,2021-11-02T07:40:00Z,27.2159,-90.2849,1343.0,3.3,90.0,-9999.0,'111111111,111111111,999999991'
BP,ioos:station:wmo:42369:4,2021-11-02T08:00:00Z,27.2159,-90.2850,1343.0,5.6,103.5,-9999.0,'111111111,111111111,999999991'
BP,ioos:station:wmo:42369:4,2021-11-02T08:20:00Z,27.2158,-90.2851,1343.0,4.8,103.2,-9999.0,'111111111,111111111,999999991'
BP,ioos:station:wmo:42369:4,2021-11-02T08:40:00Z,27.2158,-90.2852,1343.0,5.4,98.6,-9999.0,'111111111,111111111,999999991'
BP,ioos:station:wmo:42369:4,2021-11-02T20:00:00Z,27.2157,-90.2852,1343.0,8.3,237.3,-9999.0,'111111111,111111111,999999991'
BP,ioos:station:wmo:42369:4,2021-11-02T22:00:00Z,27.2157,-90.2852,1343.0,4.0,274.3,-9999.0,'111111111,111111111,999999991'
BP,ioos:station:wmo:42369:4,2021-11-03T00:00:00Z,27.2157,-90.2854,1343.0,4.9,285.5,-9999.0,'111111111,111111111,999999991'
BP,ioos:station:wmo:42369:4,2021-11-03T00:20:00Z,27.2157,-90.2853,1343.0,8.7,306.1,-9999.0,'111111111,111111111,999999991'
BP,ioos:station:wmo:42369:4,2021-11-03T00:40:00Z,27.2158,-90.2853,1343.0,9.1,314.6,-9999.0,'111111111,111111111,999999991'
BP,ioos:station:wmo:42369:4,2021-11-03T01:00:00Z,27.2158,-90.2852,1343.0,7.7,303.9,-9999.0,'111111111,111111111,999999991'
BP,ioos:station:wmo:42369:4,2021-11-03T01:20:00Z,27.2158,-90.2852,1343.0,6.1,317.7,-9999.0,'111111111,111111111,999999991'
BP,ioos:station:wmo:42369:4,2021-11-03T01:40:00Z,27.2158,-90.2852,1343.0,5.6,314.3,-9999.0,'111111111,111111111,999999991'
BP,ioos:station:wmo:42369:4,2021-11-03T02:00:00Z,27.2158,-90.2852,1343.0,3.1,292.5,-9999.0,'111111111,111111111,999999991'
BP,ioos:station:wmo:42369:4,2021-11-03T02:20:00Z,27.2159,-90.2851,1343.0,2.1,324.8,-9999.0,'111331111,111111111,999999991'
BP,ioos:station:wmo:42369:4,2021-11-03T02:40:00Z,27.2159,-90.2851,1343.0,2.3,41.4,-9999.0,'111331111,111111111,999999991'
BP,ioos:station:wmo:42369:4,2021-11-03T03:00:00Z,27.2159,-90.2850,1343.0,2.0,162.5,-9999.0,'111331111,111111111,999999991'
BP,ioos:station:wmo:42369:4,2021-11-03T03:20:00Z,27.2160,-90.2849,1343.0,2.1,140.9,-9999.0,'111331111,111111111,999999991'
BP,ioos:station:wmo:42369:4,2021-11-03T03:40:00Z,27.2160,-90.2849,1343.0,1.5,61.7,-9999.0,'111331111,111111111,999999991'
BP,ioos:station:wmo:42369:4,2021-11-03T04:20:00Z,27.2160,-90.2849,1343.0,1.9,101.9,-9999.0,'111331111,111111111,999999991'
BP,ioos:station:wmo:42369:4,2021-11-03T04:40:00Z,27.2160,-90.2848,1343.0,2.7,146.9,-9999.0,'111331111,111111111,999999991'
BP,ioos:station:wmo:42369:4,2021-11-03T05:00:00Z,27.2160,-90.2848,1343.0,3.3,151.1,-9999.0,'111111111,111111111,999999991'
BP,ioos:station:wmo:42369:4,2021-11-03T05:20:00Z,27.2159,-90.2851,1343.0,5.6,155.7,-9999.0,'111111111,111111111,999999991'
BP,ioos:station:wmo:42369:4,2021-11-03T05:40:00Z,27.2159,-90.2852,1343.0,5.7,158.4,-9999.0,'111111111,111111111,999999991'
BP,ioos:station:wmo:42369:4,2021-11-03T06:00:00Z,27.2159,-90.2852,1343.0,6.2,159.2,-9999.0,'111111111,111111111,999999991'
BP,ioos:station:wmo:42369:4,2021-11-03T06:20:00Z,27.2159,-90.2852,1343.0,7.1,164.4,-9999.0,'111111111,111111111,999999991'
BP,ioos:station:wmo:42369:4,2021-11-03T06:40:00Z,27.2159,-90.2853,1343.0,8.1,170.1,-9999.0,'111111111,111111111,999999991'
BP,ioos:station:wmo:42369:4,2021-11-03T07:00:00Z,27.2159,-90.2854,1343.0,9.3,167.6,-9999.0,'111111111,111111111,999999991'
BP,ioos:station:wmo:42369:4,2021-11-03T07:20:00Z,27.2159,-90.2854,1343.0,8.9,176.8,-9999.0,'111111111,111111111,999999991'
BP,ioos:station:wmo:42369:4,2021-11-03T07:40:00Z,27.2159,-90.2854,1343.0,11.4,179.5,-9999.0,'111111111,111111111,999999991'
BP,ioos:station:wmo:42369:4,2021-11-03T08:00:00Z,27.2159,-90.2854,1343.0,10.6,179.5,-9999.0,'111111111,111111111,999999991'
BP,ioos:station:wmo:42369:4,2021-11-03T08:20:00Z,27.2159,-90.2854,1343.0,11.2,191.8,-9999.0,'111111111,111111111,999999991'
BP,ioos:station:wmo:42369:4,2021-11-03T08:40:00Z,27.2159,-90.2855,1343.0,12.4,189.8,-9999.0,'111111111,111111111,999999991'
BP,ioos:station:wmo:42369:4,2021-11-03T09:00:00Z,27.2158,-90.2855,1343.0,12.1,190.5,-9999.0,'111111111,111111111,999999991'
BP,ioos:station:wmo:42369:4,2021-11-03T09:20:00Z,27.2158,-90.2856,1343.0,12.9,198.0,-9999.0,'111111111,111111111,999999991'
BP,ioos:station:wmo:42369:4,2021-11-03T09:40:00Z,27.2158,-90.2856,1343.0,14.6,196.3,-9999.0,'111111111,111111111,999999991'
BP,ioos:station:wmo:42369:4,2021-11-03T10:00:00Z,27.2158,-90.2856,1343.0,14.8,198.6,-9999.0,'111111111,111111111,999999991'
BP,ioos:station:wmo:42369:4,2021-11-03T10:20:00Z,27.2157,-90.2857,1343.0,14.2,198.9,-9999.0,'111111111,111111111,999999991'
BP,ioos:station:wmo:42369:4,2021-11-03T10:40:00Z,27.2157,-90.2858,1343.0,14.9,208.8,-9999.0,'111111111,111111111,999999991'
BP,ioos:station:wmo:42369:4,2021-11-03T11:00:00Z,27.2157,-90.2858,1343.0,15.8,211.8,-9999.0,'111111111,111111111,999999991'
BP,ioos:station:wmo:42369:4,2021-11-03T11:20:00Z,27.2157,-90.2859,1343.0,16.0,214.8,-9999.0,'111111111,111111111,999999991'
BP,ioos:station:wmo:42369:4,2021-11-03T11:40:00Z,27.2156,-90.2859,1343.0,13.2,216.3,-9999.0,'111111111,111111111,999999991'
BP,ioos:station:wmo:42369:4,2021-11-03T12:00:00Z,27.2156,-90.2860,1343.0,12.8,212.2,-9999.0,'111111111,111111111,999999991'
BP,ioos:station:wmo:42369:4,2021-11-03T12:20:00Z,27.2156,-90.2860,1343.0,17.1,213.0,-9999.0,'111111111,111111111,999999991'
BP,ioos:station:wmo:42369:4,2021-11-03T12:40:00Z,27.2155,-90.2860,1343.0,17.4,223.1,-9999.0,'111111111,111111111,999999991'
BP,ioos:station:wmo:42369:4,2021-11-03T13:00:00Z,27.2156,-90.2858,1343.0,16.6,223.8,-9999.0,'111111111,111111111,999999991'
BP,ioos:station:wmo:42369:4,2021-11-03T13:20:00Z,27.2156,-90.2858,1343.0,15.3,226.3,-9999.0,'111111111,111111111,999999991'
BP,ioos:station:wmo:42369:4,2021-11-03T19:20:00Z,27.2156,-90.2861,1343.0,4.1,281.3,-9999.0,'111111111,111111111,999999991'
BP,ioos:station:wmo:42369:4,2021-11-03T19:40:00Z,27.2156,-90.2861,1343.0,4.5,257.2,-9999.0,'111111111,111111111,999999991'
BP,ioos:station:wmo:42369:4,2021-11-03T20:20:00Z,27.2156,-90.2861,1343.0,3.4,270.0,-9999.0,'111111111,111111111,999999991'
BP,ioos:station:wmo:42369:4,2021-11-03T21:20:00Z,27.2156,-90.2857,1343.0,2.1,301.4,-9999.0,'111331111,111111111,999999991'
BP,ioos:station:wmo:42369:4,2021-11-03T21:40:00Z,27.2156,-90.2857,1343.0,3.0,293.2,-9999.0,'111111111,111111111,999999991'
BP,ioos:station:wmo:42369:4,2021-11-03T22:20:00Z,27.2159,-90.2851,1343.0,3.6,194.4,-9999.0,'111111111,111111111,999999991'
BP,ioos:station:wmo:42369:4,2021-11-03T23:20:00Z,27.2160,-90.2850,1343.0,1.9,248.7,-9999.0,'111331111,111111111,999999991'
BP,ioos:station:wmo:42369:4,2021-11-04T00:00:00Z,27.2161,-90.2847,1343.0,2.5,203.5,-9999.0,'111331111,111111111,999999991'
BP,ioos:station:wmo:42369:4,2021-11-04T00:20:00Z,27.2160,-90.2848,1343.0,1.6,219.8,-9999.0,'111331111,111111111,999999991'
BP,ioos:station:wmo:42369:4,2021-11-04T02:20:00Z,27.2162,-90.2842,1343.0,2.3,182.5,-9999.0,'111331111,111111111,999999991'
BP,ioos:station:wmo:42369:4,2021-11-04T04:00:00Z,27.2161,-90.2841,1343.0,6.9,169.2,-9999.0,'111111111,111111111,999999991'
BP,ioos:station:wmo:42369:4,2021-11-04T04:20:00Z,27.2161,-90.2841,1343.0,6.8,173.3,-9999.0,'111111111,111111111,999999991'
BP,ioos:station:wmo:42369:4,2021-11-04T05:20:00Z,27.2159,-90.2849,1343.0,11.2,198.3,-9999.0,'111111111,111111111,999999991'
BP,ioos:station:wmo:42369:4,2021-11-04T07:40:00Z,27.2159,-90.2845,1343.0,12.7,194.6,-9999.0,'111111111,111111111,999999991'
BP,ioos:station:wmo:42369:4,2021-11-04T08:00:00Z,27.2159,-90.2844,1343.0,14.4,196.5,-9999.0,'111111111,111111111,999999991'
BP,ioos:station:wmo:42369:4,2021-11-04T09:00:00Z,27.2160,-90.2844,1343.0,12.6,188.2,-9999.0,'111111111,111111111,999999991'
BP,ioos:station:wmo:42369:4,2021-11-04T09:20:00Z,27.2160,-90.2844,1343.0,16.2,191.7,-9999.0,'111111111,111111111,999999991'
BP,ioos:station:wmo:42369:4,2021-11-04T10:00:00Z,27.2159,-90.2852,1343.0,17.0,198.9,-9999.0,'111111111,111111111,999999991'
BP,ioos:station:wmo:42369:4,2021-11-04T10:20:00Z,27.2159,-90.2853,1343.0,16.1,202.6,-9999.0,'111111111,111111111,999999991'
BP,ioos:station:wmo:42369:4,2021-11-04T10:40:00Z,27.2159,-90.2853,1343.0,18.6,201.7,-9999.0,'111111111,111111111,999999991'
BP,ioos:station:wmo:42369:4,2021-11-04T11:00:00Z,27.2159,-90.2853,1343.0,15.4,210.1,-9999.0,'111111111,111111111,999999991'
BP,ioos:station:wmo:42369:4,2021-11-04T11:20:00Z,27.2159,-90.2853,1343.0,15.8,210.8,-9999.0,'111111111,111111111,999999991'
BP,ioos:station:wmo:42369:4,2021-11-04T11:40:00Z,27.2159,-90.2853,1343.0,17.3,206.9,-9999.0,'111111111,111111111,999999991'
BP,ioos:station:wmo:42369:4,2021-11-04T12:00:00Z,27.2158,-90.2854,1343.0,15.5,209.7,-9999.0,'111111111,111111111,999999991'
BP,ioos:station:wmo:42369:4,2021-11-04T12:20:00Z,27.2158,-90.2854,1343.0,14.6,214.7,-9999.0,'111111111,111111111,999999991'
BP,ioos:station:wmo:42369:4,2021-11-04T12:40:00Z,27.2158,-90.2854,1343.0,12.6,219.5,-9999.0,'111111111,111111111,999999991'
BP,ioos:station:wmo:42369:4,2021-11-04T13:00:00Z,27.2158,-90.2855,1343.0,9.7,219.1,-9999.0,'111111111,111111111,999999991'
BP,ioos:station:wmo:42369:4,2021-11-04T13:20:00Z,27.2158,-90.2856,1343.0,8.9,231.8,-9999.0,'111111111,111111111,999999991'
BP,ioos:station:wmo:42369:4,2021-11-04T13:40:00Z,27.2158,-90.2856,1343.0,9.2,233.9,-9999.0,'111111111,111111111,999999991'
BP,ioos:station:wmo:42369:4,2021-11-04T14:00:00Z,27.2158,-90.2856,1343.0,8.8,237.0,-9999.0,'111111111,111111111,999999991'
BP,ioos:station:wmo:42369:4,2021-11-04T14:20:00Z,27.2158,-90.2857,1343.0,8.8,248.7,-9999.0,'111111111,111111111,999999991'
BP,ioos:station:wmo:42369:4,2021-11-04T14:40:00Z,27.2158,-90.2857,1343.0,7.7,251.8,-9999.0,'111111111,111111111,999999991'
BP,ioos:station:wmo:42369:4,2021-11-04T15:00:00Z,27.2158,-90.2858,1343.0,6.1,260.5,-9999.0,'111111111,111111111,999999991'
BP,ioos:station:wmo:42369:4,2021-11-04T15:20:00Z,27.2158,-90.2858,1343.0,5.7,267.0,-9999.0,'111111111,111111111,999999991'
BP,ioos:station:wmo:42369:4,2021-11-04T15:40:00Z,27.2157,-90.2859,1343.0,5.4,267.9,-9999.0,'111111111,111111111,999999991'
BP,ioos:station:wmo:42369:4,2021-11-04T16:00:00Z,27.2156,-90.2860,1343.0,5.4,281.7,-9999.0,'111111111,111111111,999999991'
BP,ioos:station:wmo:42369:4,2021-11-04T16:20:00Z,27.2156,-90.2861,1343.0,5.7,263.0,-9999.0,'111111111,111111111,999999991'
BP,ioos:station:wmo:42369:4,2021-11-04T21:00:00Z,27.2156,-90.2861,1343.0,1.0,5.7,-9999.0,'111331111,111111111,999999991'
BP,ioos:station:wmo:42369:4,2021-11-04T21:20:00Z,27.2156,-90.2861,1343.0,0.7,8.1,-9999.0,'111331111,111111111,999999991'
BP,ioos:station:wmo:42369:4,2021-11-04T21:40:00Z,27.2156,-90.2861,1343.0,0.9,270.0,-9999.0,'111331111,111111111,999999991'
BP,ioos:station:wmo:42369:4,2021-11-04T22:00:00Z,27.2156,-90.2861,1343.0,3.2,255.5,-9999.0,'111111111,111111111,999999991'
BP,ioos:station:wmo:42369:4,2021-11-04T22:20:00Z,27.2162,-90.2839,1343.0,4.9,287.7,-9999.0,'111111111,111111111,999999991'
BP,ioos:station:wmo:42369:4,2021-11-04T22:40:00Z,27.2162,-90.2839,1343.0,1.7,335.0,-9999.0,'111331111,111111111,999999991'
BP,ioos:station:wmo:42369:4,2021-11-04T23:00:00Z,27.2163,-90.2839,1343.0,2.9,284.0,-9999.0,'111331111,111111111,999999991'
BP,ioos:station:wmo:42369:4,2021-11-05T01:00:00Z,27.2156,-90.2857,1343.0,2.0,156.0,-9999.0,'111331111,111111111,999999991'
BP,ioos:station:wmo:42369:4,2021-11-05T01:20:00Z,27.2156,-90.2857,1343.0,3.6,147.7,-9999.0,'111111111,111111111,999999991'
BP,ioos:station:wmo:42369:4,2021-11-05T04:00:00Z,27.2158,-90.2855,1343.0,10.6,200.5,-9999.0,'111111111,111111111,999999991'
BP,ioos:station:wmo:42369:4,2021-11-05T04:20:00Z,27.2158,-90.2853,1343.0,8.5,206.0,-9999.0,'111111111,111111111,999999991'
BP,ioos:station:wmo:42369:4,2021-11-05T04:40:00Z,27.2158,-90.2853,1343.0,9.4,192.9,-9999.0,'111111111,111111111,999999991'
BP,ioos:station:wmo:42369:4,2021-11-05T05:00:00Z,27.2159,-90.2852,1343.0,9.0,182.5,-9999.0,'111111111,111111111,999999991'
BP,ioos:station:wmo:42369:4,2021-11-05T05:20:00Z,27.2160,-90.2851,1343.0,8.7,190.5,-9999.0,'111111111,111111111,999999991'
BP,ioos:station:wmo:42369:4,2021-11-05T05:40:00Z,27.2160,-90.2851,1343.0,9.6,193.9,-9999.0,'111111111,111111111,999999991'
BP,ioos:station:wmo:42369:4,2021-11-05T06:00:00Z,27.2160,-90.2851,1343.0,10.2,193.6,-9999.0,'111111111,111111111,999999991'
BP,ioos:station:wmo:42369:4,2021-11-05T06:20:00Z,27.2160,-90.2849,1343.0,9.6,196.9,-9999.0,'111111111,111111111,999999991'
BP,ioos:station:wmo:42369:4,2021-11-05T06:40:00Z,27.2160,-90.2849,1343.0,10.0,198.1,-9999.0,'111111111,111111111,999999991'
BP,ioos:station:wmo:42369:4,2021-11-05T07:00:00Z,27.2161,-90.2847,1343.0,10.2,206.1,-9999.0,'111111111,111111111,999999991'
BP,ioos:station:wmo:42369:4,2021-11-05T07:20:00Z,27.2161,-90.2846,1343.0,11.5,195.1,-9999.0,'111111111,111111111,999999991'
BP,ioos:station:wmo:42369:4,2021-11-05T07:40:00Z,27.2161,-90.2845,1343.0,10.6,201.0,-9999.0,'111111111,111111111,999999991'
BP,ioos:station:wmo:42369:4,2021-11-05T08:00:00Z,27.2161,-90.2845,1343.0,9.0,205.7,-9999.0,'111111111,111111111,999999991'
BP,ioos:station:wmo:42369:4,2021-11-05T08:20:00Z,27.2161,-90.2844,1343.0,11.8,199.8,-9999.0,'111111111,111111111,999999991'
BP,ioos:station:wmo:42369:4,2021-11-05T08:40:00Z,27.2161,-90.2844,1343.0,10.3,194.0,-9999.0,'111111111,111111111,999999991'
BP,ioos:station:wmo:42369:4,2021-11-05T09:00:00Z,27.2162,-90.2844,1343.0,9.5,204.1,-9999.0,'111111111,111111111,999999991'
BP,ioos:station:wmo:42369:4,2021-11-05T09:20:00Z,27.2162,-90.2841,1343.0,10.6,207.5,-9999.0,'111111111,111111111,999999991'
BP,ioos:station:wmo:42369:4,2021-11-05T09:40:00Z,27.2162,-90.2841,1343.0,8.9,212.1,-9999.0,'111111111,111111111,999999991'
BP,ioos:station:wmo:42369:4,2021-11-05T10:00:00Z,27.2161,-90.2840,1343.0,10.6,207.5,-9999.0,'111111111,111111111,999999991'
BP,ioos:station:wmo:42369:4,2021-11-05T10:20:00Z,27.2161,-90.2841,1343.0,8.6,214.1,-9999.0,'111111111,111111111,999999991'
BP,ioos:station:wmo:42369:4,2021-11-05T10:40:00Z,27.2161,-90.2841,1343.0,8.7,216.6,-9999.0,'111111111,111111111,999999991'
BP,ioos:station:wmo:42369:4,2021-11-05T11:00:00Z,27.2161,-90.2841,1343.0,9.7,219.6,-9999.0,'111111111,111111111,999999991'
BP,ioos:station:wmo:42369:4,2021-11-05T11:20:00Z,27.2161,-90.2841,1343.0,9.6,215.7,-9999.0,'111111111,111111111,999999991'
BP,ioos:station:wmo:42369:4,2021-11-05T11:40:00Z,27.2160,-90.2843,1343.0,9.4,222.0,-9999.0,'111111111,111111111,999999991'
BP,ioos:station:wmo:42369:4,2021-11-05T12:00:00Z,27.2160,-90.2847,1343.0,8.2,223.0,-9999.0,'111111111,111111111,999999991'
BP,ioos:station:wmo:42369:4,2021-11-05T12:20:00Z,27.2160,-90.2846,1343.0,10.2,214.6,-9999.0,'111111111,111111111,999999991'
BP,ioos:station:wmo:42369:4,2021-11-05T12:40:00Z,27.2160,-90.2847,1343.0,9.6,215.7,-9999.0,'111111111,111111111,999999991'
BP,ioos:station:wmo:42369:4,2021-11-05T13:00:00Z,27.2160,-90.2847,1343.0,6.9,223.8,-9999.0,'111111111,111111111,999999991'
BP,ioos:station:wmo:42369:4,2021-11-05T13:20:00Z,27.2160,-90.2848,1343.0,6.1,223.7,-9999.0,'111111111,111111111,999999991'
BP,ioos:station:wmo:42369:4,2021-11-05T13:40:00Z,27.2159,-90.2849,1343.0,7.2,246.3,-9999.0,'111111111,111111111,999999991'
BP,ioos:station:wmo:42369:4,2021-11-05T14:00:00Z,27.2159,-90.2849,1343.0,6.3,235.3,-9999.0,'111111111,111111111,999999991'
BP,ioos:station:wmo:42369:4,2021-11-05T14:20:00Z,27.2160,-90.2849,1343.0,6.0,245.6,-9999.0,'111111111,111111111,999999991'
BP,ioos:station:wmo:42369:4,2021-11-05T14:40:00Z,27.2159,-90.2849,1343.0,6.4,233.8,-9999.0,'111111111,111111111,999999991'
BP,ioos:station:wmo:42369:4,2021-11-05T15:00:00Z,27.2159,-90.2848,1343.0,4.9,240.8,-9999.0,'111111111,111111111,999999991'
BP,ioos:station:wmo:42369:4,2021-11-05T15:20:00Z,27.2160,-90.2847,1343.0,6.1,240.5,-9999.0,'111111111,111111111,999999991'
BP,ioos:station:wmo:42369:4,2021-11-05T15:40:00Z,27.2159,-90.2846,1343.0,6.3,248.7,-9999.0,'111111111,111111111,999999991'
BP,ioos:station:wmo:42369:4,2021-11-05T16:00:00Z,27.2159,-90.2846,1343.0,5.3,240.5,-9999.0,'111111111,111111111,999999991'
BP,ioos:station:wmo:42369:4,2021-11-05T16:20:00Z,27.2159,-90.2846,1343.0,5.8,239.0,-9999.0,'111111111,111111111,999999991'
BP,ioos:station:wmo:42369:4,2021-11-05T16:40:00Z,27.2159,-90.2844,1343.0,5.5,259.5,-9999.0,'111111111,111111111,999999991'